Weather reports worldwide

Advertisment
Gogerddan, United Kingdom (99150): temperature & dewpoint: 06.11.2019 15:00:00 - 12.11.2019 15:00:00 (GMT)Gogerddan, United Kingdom (99150): temperature -20cm & temperature -100cm: 06.11.2019 15:00:00 - 12.11.2019 15:00:00 (GMT)Gogerddan, United Kingdom (99150): precipitation: 06.11.2019 15:00:00 - 12.11.2019 15:00:00 (GMT)
Date & Time tt [°C] td [°C] tt -20cm [°C] tt -100cm [°C] rr [mm]
12.11.2019 15:00:00 9,2 6,5 - - 0,0
12.11.2019 14:00:00 8,4 6,9 - - 0,2
12.11.2019 13:00:00 8,4 6,3 - - 0,2
12.11.2019 12:00:00 8,3 5,6 - - 0,0
12.11.2019 11:00:00 7,7 5,4 - - 2,0
12.11.2019 10:00:00 7,1 4,6 - - 1,2
12.11.2019 09:00:00 7,0 3,4 8,2 10,5 0,0
12.11.2019 08:00:00 7,3 2,6 - - 0,0
12.11.2019 07:00:00 7,3 2,8 - - 0,0
12.11.2019 06:00:00 7,1 1,6 - - 0,0
12.11.2019 05:00:00 6,9 2,4 - - 0,0
12.11.2019 04:00:00 6,9 2,5 - - 0,0
12.11.2019 03:00:00 6,5 2,5 - - 0,4
12.11.2019 02:00:00 6,6 2,2 - - 0,2
12.11.2019 01:00:00 7,0 1,8 - - 0,0
12.11.2019 00:00:00 6,6 2,4 - - 0,8
11.11.2019 23:00:00 6,6 3,2 - - 0,4
11.11.2019 22:00:00 7,1 2,6 - - 0,6
11.11.2019 21:00:00 6,7 2,8 - - 0,4
11.11.2019 20:00:00 7,1 3,4 - - 0,6
11.11.2019 19:00:00 8,0 2,8 - - 0,2
11.11.2019 18:00:00 8,3 2,2 - - 0,0
11.11.2019 17:00:00 8,2 2,1 - - 0,0
11.11.2019 16:00:00 8,3 2,7 - - 0,0
11.11.2019 15:00:00 8,7 3,0 - - 0,0
11.11.2019 14:00:00 8,1 3,6 - - 0,2
11.11.2019 13:00:00 8,3 3,9 - - 0,0
11.11.2019 12:00:00 8,5 3,7 - - 0,0
11.11.2019 11:00:00 8,3 3,4 - - 0,0
11.11.2019 10:00:00 8,3 3,6 - - 0,0
11.11.2019 09:00:00 8,1 3,0 8,2 10,7 0,0
11.11.2019 08:00:00 8,2 3,3 - - 0,0
11.11.2019 07:00:00 7,9 3,6 - - 0,2
11.11.2019 06:00:00 7,6 4,0 - - 0,2
11.11.2019 05:00:00 8,0 4,1 - - 0,2
11.11.2019 04:00:00 8,0 4,2 - - 0,8
11.11.2019 03:00:00 6,3 4,9 - - 2,0
11.11.2019 02:00:00 6,6 5,1 - - 2,4
11.11.2019 01:00:00 7,5 6,0 - - 1,2
11.11.2019 00:00:00 6,9 5,8 - - 1,4
10.11.2019 23:00:00 6,6 5,2 - - 0,4
10.11.2019 22:00:00 6,4 4,7 - - 1,2
10.11.2019 21:00:00 6,1 4,4 - - 2,2
10.11.2019 20:00:00 5,4 3,5 - - 0,0
10.11.2019 19:00:00 5,5 2,5 - - 0,0
10.11.2019 18:00:00 6,3 2,4 - - 0,0
10.11.2019 17:00:00 6,4 2,6 - - 0,0
10.11.2019 16:00:00 6,1 3,0 - - 0,0
10.11.2019 15:00:00 7,3 2,1 - - 0,0
10.11.2019 14:00:00 8,2 1,7 - - 0,0
10.11.2019 13:00:00 8,3 1,7 - - 0,0
10.11.2019 12:00:00 7,8 0,6 - - 0,0
10.11.2019 11:00:00 5,8 0,8 - - 0,0
10.11.2019 10:00:00 4,9 1,8 - - 0,0
10.11.2019 09:00:00 0,8 0,0 8,4 10,9 0,0
10.11.2019 08:00:00 0,9 -0,3 - - 0,0
10.11.2019 07:00:00 1,2 -0,1 - - 0,0
10.11.2019 06:00:00 1,5 -0,2 - - 0,0
10.11.2019 05:00:00 3,8 0,8 - - 0,0
10.11.2019 04:00:00 3,6 1,6 - - 0,2
10.11.2019 03:00:00 3,8 1,9 - - 0,0
10.11.2019 02:00:00 4,1 1,7 - - 0,0
10.11.2019 01:00:00 4,4 1,6 - - 0,0
10.11.2019 00:00:00 4,2 1,9 - - 0,0
09.11.2019 23:00:00 4,0 2,0 - - 0,0
09.11.2019 22:00:00 4,1 2,6 - - 0,0
09.11.2019 21:00:00 4,5 2,8 - - 0,0
09.11.2019 20:00:00 4,4 2,6 - - 0,0
09.11.2019 19:00:00 4,7 3,3 - - 0,2
09.11.2019 18:00:00 4,8 3,4 - - 0,8
09.11.2019 17:00:00 5,5 4,7 - - 0,4
09.11.2019 16:00:00 6,4 5,0 - - 0,2
09.11.2019 15:00:00 6,6 5,2 - - 0,4
09.11.2019 14:00:00 6,5 5,2 - - 0,4
09.11.2019 13:00:00 5,8 4,5 - - 1,6
09.11.2019 12:00:00 6,4 4,2 - - 0,0
09.11.2019 11:00:00 5,3 3,7 - - 1,2
09.11.2019 10:00:00 4,6 2,8 - - 1,0
09.11.2019 09:00:00 4,4 2,3 8,7 11,0 2,8
09.11.2019 08:00:00 4,4 1,4 - - 1,2
09.11.2019 07:00:00 5,3 -1,8 - - 0,0
09.11.2019 06:00:00 4,3 -0,9 - - 0,2
09.11.2019 05:00:00 3,0 -0,5 - - 0,0
09.11.2019 04:00:00 0,9 -1,8 - - 0,0
09.11.2019 03:00:00 -1,6 -2,3 - - 0,0
09.11.2019 02:00:00 -1,7 -2,4 - - 0,0
09.11.2019 01:00:00 -2,2 -3,2 - - 0,0
09.11.2019 00:00:00 -2,1 -3,3 - - 0,0
08.11.2019 23:00:00 -1,1 -2,3 - - 0,0
08.11.2019 22:00:00 -0,5 -2,0 - - 0,0
08.11.2019 21:00:00 -0,6 -2,2 - - 0,0
08.11.2019 20:00:00 -0,4 -2,3 - - 0,0
08.11.2019 19:00:00 1,2 -1,4 - - 0,0
08.11.2019 18:00:00 3,5 0,0 - - 0,0
08.11.2019 17:00:00 5,7 0,3 - - 0,0
08.11.2019 16:00:00 7,7 2,0 - - 0,0
08.11.2019 15:00:00 8,5 1,5 - - 0,0
08.11.2019 14:00:00 9,1 1,0 - - 0,0
08.11.2019 13:00:00 9,1 3,1 - - 0,0
08.11.2019 12:00:00 9,0 2,5 - - 0,0
08.11.2019 11:00:00 7,9 2,4 - - 0,0
08.11.2019 10:00:00 6,7 2,8 - - 0,0
08.11.2019 09:00:00 3,1 1,8 9,5 11,2 0,0
08.11.2019 08:00:00 3,9 1,8 - - 0,0
08.11.2019 07:00:00 5,3 1,9 - - 0,0
08.11.2019 06:00:00 5,4 2,3 - - 0,0
08.11.2019 05:00:00 5,9 2,7 - - 0,0
08.11.2019 04:00:00 6,4 3,2 - - 0,0
08.11.2019 03:00:00 6,7 3,4 - - 0,0
08.11.2019 02:00:00 6,9 3,7 - - 0,0
08.11.2019 01:00:00 6,8 4,6 - - 0,0
08.11.2019 00:00:00 4,8 4,2 - - 0,4
07.11.2019 23:00:00 4,8 3,9 - - 0,8
07.11.2019 22:00:00 5,1 3,2 - - 0,6
07.11.2019 21:00:00 5,5 3,2 - - 0,2
07.11.2019 20:00:00 6,4 4,0 - - 0,0
07.11.2019 19:00:00 7,0 4,9 - - 0,2
07.11.2019 18:00:00 6,8 5,1 - - 0,0
07.11.2019 17:00:00 7,0 5,0 - - 0,0
07.11.2019 16:00:00 8,5 4,6 - - 0,0
07.11.2019 15:00:00 9,7 4,5 - - 0,0
07.11.2019 14:00:00 10,2 4,6 - - 0,0
07.11.2019 13:00:00 10,2 4,2 - - 0,0
07.11.2019 12:00:00 9,3 3,9 - - 0,0
07.11.2019 11:00:00 9,3 3,7 - - 0,0
07.11.2019 10:00:00 8,7 4,6 - - 0,0
07.11.2019 09:00:00 7,6 4,0 9,7 11,2 0,0
07.11.2019 08:00:00 7,5 4,3 - - 0,0
07.11.2019 07:00:00 7,2 5,0 - - 0,6
07.11.2019 06:00:00 7,6 4,6 - - 0,0
07.11.2019 05:00:00 7,6 4,8 - - 0,0
07.11.2019 04:00:00 7,5 5,9 - - 0,8
07.11.2019 03:00:00 7,7 6,4 - - 2,8
07.11.2019 02:00:00 6,0 5,6 - - 0,2
07.11.2019 01:00:00 6,4 5,9 - - 0,6
07.11.2019 00:00:00 6,5 5,8 - - 2,4
06.11.2019 23:00:00 6,8 6,0 - - 1,8
06.11.2019 22:00:00 7,0 6,1 - - 3,0
06.11.2019 21:00:00 7,6 6,1 - - 5,2
06.11.2019 20:00:00 7,5 6,0 - - 2,8
06.11.2019 19:00:00 7,8 5,6 - - 0,0
06.11.2019 18:00:00 7,4 5,4 - - 0,0
06.11.2019 17:00:00 7,8 6,1 - - 0,0
06.11.2019 16:00:00 7,8 6,8 - - 0,0
06.11.2019 15:00:00 7,6 6,2 - - 0,4

tt = temperature
td = dewpoint
tt -20cm = temperature -20cm
tt -100cm = temperature -100cm
rr = precipitation

Next stations